SL-8 DEB

基本信息
目录编号:
38667
目录名称:
SL-8 DEB
国际标识:
1974-071E
轨道中心:
EARTH
物体状态:
在轨
发射日期:
1974-09-11 UTC
轨道信息
数据来源: 国际轨道数据
星历时间: 2026-09-08T10:52:10+0800
半长轴: 7146.505km
偏心率: 0.0021385
轨道倾角: 74.051°
近地点辐角: 321.978°
升交点赤经: 172.756°
平近点角: 37.987°
近地点: 753.085km
远地点: 783.651km
周期: 100.207分钟
每日圈数: 14.370182
详细信息
发射场:
PKMTR
轨道高度:
LEO
数据来源:
AOE Integration Group
参考系:
TEME
时间系统:
UTC
历元类型:
SGP4
2D轨道图
3D轨道图
轨道高度分析图
轨道倾角分析图
轨道综合分析图
查看轨道综合分析图